[[{"header":{"parameterUnit":"m.s-1","parameterCategory":1,"la1":30.2991,"la2":30.254,"lo1":-89.0895,"lo2":-89.0444,"dy":0.0017,"dx":0.0017,"nx":28,"ny":28,"refTime":"2024-11-25T03:00:00:Z","depth":0,"parameterNumber":2,"parameterNumberName":"U-component_of_WINDS"},"data":[0,0,0,0,0,0,0,0,0,0,0,0,0,0,0,0,0,0,0,0,0,0,0,0,0,0,0,0,0,0,0,0,0,0,0,0,0,0,0,0,0,0,0,0,0,0,0,0,0,0,0,0,0,0,0,0,0,0,-3.235,-3.235,0,-3.237,-3.237,-3.237,-3.2258,-3.2255,-3.2252,-3.2249,-3.2268,-3.2272,-3.2275,0,0,0,0,0,0,0,0,0,0,0,0,0,-3.2214,-3.2217,-3.235,-3.235,-3.235,-3.237,-3.237,-3.237,-3.2259,-3.2255,-3.2251,-3.2247,-3.2267,-3.2271,-3.2275,0,0,0,0,0,0,0,0,0,0,0,0,0,-3.2258,-3.2218,-3.235,-3.2297,-3.2292,-3.237,-3.237,-3.2371,-3.226,-3.2255,-3.225,-3.2246,-3.2266,-3.2271,-3.2276,-3.2405,0,0,-3.2292,-3.2294,0,0,0,0,0,0,0,0,-3.2255,-3.2263,-3.2305,-3.2301,-3.2296,-3.2307,-3.2329,-3.2382,-3.2261,-3.2272,-3.2249,-3.2243,-3.2285,-3.2288,-3.2302,-3.2405,-3.2406,-3.2292,-3.2296,-3.2298,-3.2299,0,0,0,0,0,0,0,-3.2252,-3.2261,-3.2358,-3.2305,-3.23,-3.2272,-3.2273,-3.2339,-3.2305,-3.2271,-3.2263,-3.2267,-3.2281,-3.2298,-3.2302,-3.2407,-3.2292,-3.2297,-3.23,-3.2302,-3.2616,-3.2621,0,0,0,0,0,0,-3.2256,-3.2259,-3.2357,-3.2358,-3.2263,-3.2279,-3.2279,-3.2308,-3.2304,-3.2299,-3.2271,-3.2261,-3.2291,-3.2296,-3.2302,-3.2452,-3.2298,-3.2303,-3.2306,-3.2611,-3.2617,-3.2623,0,0,0,0,0,0,-3.2254,-3.2266,-3.2356,-3.2307,-3.2316,-3.2286,-3.2319,-3.2311,-3.2327,-3.2304,-3.2297,-3.2293,-3.2287,-3.2295,-3.238,-3.2451,-3.2305,-3.231,-3.2605,-3.2613,-3.262,-3.2753,0,0,0,0,0,0,-3.2251,-3.2266,-3.2315,-3.2309,-3.2319,-3.2434,-3.2323,-3.2315,-3.2336,-3.2324,-3.2324,-3.2319,-3.2284,-3.2373,-3.2385,-3.2456,-3.2314,-3.2598,-3.2608,-3.2618,-3.2742,-3.2764,-3.2783,0,0,0,0,0,-3.2246,-3.2351,-3.2318,-3.233,-3.2379,-3.2438,-3.2444,-3.2403,-3.2343,-3.2391,-3.2377,-3.2319,-3.2442,-3.2383,-3.2396,-3.2469,-3.2594,-3.2606,-3.2617,-3.2733,-3.276,-3.2783,0,0,0,0,0,0,-3.2365,-3.2349,-3.2312,-3.2418,-3.2431,-3.2419,-3.2479,-3.2433,-3.2462,-3.2449,-3.2396,-3.2397,-3.2491,-3.2489,-3.2423,-3.2593,-3.2507,-3.2522,-3.2591,-3.2617,-3.2637,-3.2635,-3.2318,0,0,0,0,0,-3.2404,-3.2454,-3.2437,-3.2532,-3.254,-3.2509,-3.2533,-3.2501,-3.2511,-3.2515,-3.2507,-3.2519,-3.256,-3.2589,-3.2625,-3.2742,-3.274,-3.2799,-3.282,-3.2837,-3.2849,-3.2911,-3.2936,-3.2661,-3.2661,-3.2661,0,0,-3.2484,-3.2482,-3.2516,-3.2556,-3.2562,-3.2614,-3.2514,-3.2574,-3.2612,-3.2524,-3.2604,-3.2599,-3.2609,-3.271,-3.2755,-3.2711,-3.2925,-3.2852,-3.2865,-3.2869,-3.2925,-3.2951,-3.2974,-3.2669,-3.2668,-3.2666,0,0,-3.2656,-3.266,-3.2739,-3.2748,-3.2758,-3.2737,-3.2757,-3.2753,-3.2746,-3.2826,-3.2761,-3.2806,-3.2878,-3.2888,-3.2903,-3.3081,-3.3029,-3.3095,-3.3202,-3.3262,-3.3284,-3.3303,-3.3365,-3.3389,-3.3108,-3.3108,-3.3109,0,-3.2754,-3.2831,-3.2786,-3.285,-3.287,-3.2794,-3.2874,-3.2884,-3.2907,-3.2921,-3.2873,-3.2962,-3.2964,-3.3066,-3.311,-3.3125,-3.3145,-3.3093,-3.3284,-3.3303,-3.332,-3.3379,-3.3403,-3.3116,-3.3115,-3.3115,-3.3114,0,-3.295,-3.3005,-3.3068,-3.3092,-3.3118,-3.319,-3.3156,-3.3189,-3.3155,-3.3139,-3.3221,-3.322,-3.3256,-3.3278,-3.3245,-3.3376,-3.3349,-3.3294,-3.3206,-3.3355,-3.3409,-3.3432,-3.3127,-3.3125,-3.3122,-3.312,0,0,-3.3195,-3.3195,-3.3219,-3.3229,-3.3236,-3.3277,-3.3346,-3.3381,-3.341,-3.3428,-3.3484,-3.3548,-3.3497,-3.3514,-3.3481,-3.3535,-3.3675,-3.3472,-3.3471,-3.3509,-3.3819,-3.3859,-3.3886,-3.3641,-3.3646,-3.3649,-3.3818,0,-3.3363,-3.348,-3.3443,-3.3562,-3.3611,-3.3542,-3.3601,-3.3612,-3.36,-3.364,-3.3626,-3.3672,-3.3601,-3.3611,-3.3661,-3.3647,-3.3736,-3.3635,-3.3692,-3.3694,-3.3689,-3.3915,-3.3958,-3.4117,-3.3839,-3.3842,-3.3845,0,-3.3573,-3.3601,-3.3725,-3.3724,-3.3744,-3.3798,-3.3828,-3.3867,-3.3878,-3.3865,-3.3886,-3.3842,-3.3909,-3.3824,-3.3915,-3.3847,-3.3869,-3.3866,-3.3871,-3.3873,-3.3777,-3.3922,-3.4166,-3.419,-3.3878,-3.3876,-3.3873,0,-3.3738,-3.3807,-3.3889,-3.3901,-3.3902,-3.3942,-3.3945,-3.3951,-3.3975,-3.4001,-3.4016,-3.405,-3.4068,-3.4095,-3.4062,-3.4003,-3.4158,-3.407,-3.4149,-3.415,-3.4183,-3.4181,-3.4433,-3.42,-3.42,-3.4199,-3.4199,0,-3.3928,-3.4006,-3.3964,-3.4014,-3.41,-3.4057,-3.4143,-3.4138,-3.4144,-3.4193,-3.4135,-3.4182,-3.4136,-3.4178,-3.4153,-3.4232,-3.4241,-3.4232,-3.4224,-3.4237,-3.4238,-3.4248,-3.4236,-3.4206,-3.4204,-3.4203,-3.4202,0,-3.4126,-3.41,-3.4186,-3.4181,-3.4182,-3.4245,-3.4241,-3.4288,-3.4272,-3.4334,-3.4346,-3.4321,-3.4368,-3.4339,-3.4386,-3.4369,-3.4473,-3.445,-3.4469,-3.4462,-3.4542,-3.4534,-3.4808,-3.4842,-3.459,-3.4592,-3.4594,0,-3.4247,-3.4306,-3.4308,-3.4337,-3.4343,-3.439,-3.4414,-3.4375,-3.4403,-3.4421,-3.4466,-3.4508,-3.4539,-3.4618,-3.4604,-3.464,-3.4617,-3.4711,-3.4622,-3.4632,-3.4616,-3.4612,-3.4618,-3.4728,-3.4731,-3.4733,-3.4735,0,-3.4466,-3.4451,-3.4488,-3.4523,-3.4554,-3.4578,-3.4598,-3.4625,-3.4586,-3.462,-3.4668,-3.4692,-3.4741,-3.4784,-3.4815,-3.4816,-3.4769,-3.4764,-3.4783,-3.4795,-3.4803,-3.4798,-3.4516,-3.4757,-3.4755,-3.4753,-3.4752,-3.4751,-3.4628,-3.4676,-3.4686,-3.473,-3.4741,-3.4762,-3.4805,-3.4796,-3.4835,-3.4872,-3.4847,-3.4904,-3.4914,-3.495,-3.4959,-3.5002,-3.4964,-3.4993,-3.5,-3.5007,-3.5018,-3.4798,-3.5008,-3.5007,-3.5007,-3.5006,-3.5006,0,-3.4841,-3.4845,-3.4886,-3.4916,-3.4951,-3.4906,-3.4926,-3.4958,-3.5008,-3.5022,-3.5055,-3.511,-3.5152,-3.5142,-3.5179,-3.5216,-3.5195,-3.5227,-3.5222,-3.5223,-3.5051,-3.5029,-3.5243,-3.5243,-3.5243,-3.5243,-3.5243,-3.5242,-3.4957,-3.5037,-3.5024,-3.5109,-3.5111,-3.5167,-3.5182,-3.5201,-3.5211,-3.5276,-3.531,-3.5304,-3.5309,-3.5346,-3.5382,-3.5378,-3.5394,-3.5433,-3.5421,-3.5259,-3.5236,-3.5213,-3.5192,-3.5437,-3.5437,-3.559,-3.5591,-3.5592]},{"header":{"parameterUnit":"m.s-1","parameterCategory":1,"la1":30.2991,"la2":30.254,"lo1":-89.0895,"lo2":-89.0444,"dy":0.0017,"dx":0.0017,"nx":28,"ny":28,"refTime":"2024-11-25T03:00:00:Z","depth":0,"parameterNumber":3,"parameterNumberName":"V-component_of_WINDS"},"data":[0,0,0,0,0,0,0,0,0,0,0,0,0,0,0,0,0,0,0,0,0,0,0,0,0,0,0,0,0,0,0,0,0,0,0,0,0,0,0,0,0,0,0,0,0,0,0,0,0,0,0,0,0,0,0,0,0,0,2.2138,2.2137,0,2.2089,2.2088,2.2087,2.2048,2.2048,2.2048,2.2047,2.1992,2.1991,2.199,0,0,0,0,0,0,0,0,0,0,0,0,0,2.2193,2.2193,2.2138,2.2137,2.2137,2.2089,2.2088,2.2087,2.2049,2.2048,2.2048,2.2047,2.1992,2.1991,2.199,0,0,0,0,0,0,0,0,0,0,0,0,0,2.2159,2.2192,2.2138,2.2112,2.2109,2.2089,2.2088,2.2087,2.2049,2.2048,2.2048,2.2047,2.1993,2.1991,2.1989,2.199,0,0,2.1984,2.1984,0,0,0,0,0,0,0,0,2.2161,2.2157,2.2116,2.2113,2.211,2.2074,2.2087,2.2054,2.2049,2.2071,2.2047,2.2047,2.2019,2.2015,2.2007,2.1987,2.1985,2.1984,2.1983,2.1982,2.1982,0,0,0,0,0,0,0,2.2164,2.2159,2.2118,2.2115,2.2112,2.2101,2.2095,2.2081,2.2049,2.2069,2.2066,2.2061,2.2018,2.2009,2.2006,2.1984,2.1984,2.1983,2.1982,2.1981,2.1961,2.1961,0,0,0,0,0,0,2.2171,2.2161,2.212,2.2117,2.2135,2.21,2.2094,2.2086,2.2049,2.2043,2.2062,2.206,2.2012,2.2008,2.2004,2.2001,2.1982,2.1981,2.198,2.196,2.1961,2.1961,0,0,0,0,0,0,2.2172,2.2167,2.2122,2.2138,2.2132,2.21,2.2091,2.2085,2.2077,2.2043,2.2037,2.2059,2.2012,2.2006,2.1994,2.1998,2.198,2.1978,2.196,2.196,2.1961,2.1996,0,0,0,0,0,0,2.2174,2.2168,2.2169,2.2139,2.2131,2.2114,2.2092,2.2085,2.2075,2.2071,2.2039,2.2033,2.2011,2.1997,2.1992,2.1996,2.1977,2.1959,2.196,2.1961,2.1994,2.1998,2.2001,0,0,0,0,0,2.2176,2.218,2.217,2.2165,2.2132,2.2115,2.211,2.2085,2.2075,2.2075,2.2054,2.2034,2.1999,2.1996,2.199,2.1993,2.1959,2.196,2.1961,2.1993,2.1997,2.2001,0,0,0,0,0,0,2.2211,2.2176,2.2163,2.2158,2.214,2.2108,2.2107,2.2091,2.2074,2.2071,2.204,2.2033,2.2024,2.2007,2.2004,2.1991,2.1976,2.1976,2.2002,2.2006,2.2009,2.2013,2.1976,0,0,0,0,0,2.2218,2.2209,2.2178,2.2176,2.2168,2.2139,2.2131,2.2114,2.2093,2.2084,2.2062,2.2041,2.2025,2.2015,2.1998,2.1992,2.1983,2.1991,2.1995,2.1998,2.1997,2.1991,2.1994,2.1965,2.1965,2.1965,0,0,2.2232,2.2212,2.2208,2.2183,2.2166,2.2156,2.2133,2.2123,2.2114,2.2082,2.2069,2.2052,2.2026,2.2017,2.2012,2.2003,2.2004,2.1999,2.2001,2.2,2.1993,2.1996,2.1998,2.1966,2.1965,2.1965,0,0,2.2253,2.2238,2.2234,2.2218,2.2195,2.2176,2.2175,2.2146,2.2134,2.2121,2.2096,2.2084,2.2058,2.204,2.2028,2.2042,2.2023,2.2037,2.2054,2.2048,2.2051,2.2052,2.2056,2.2058,2.2037,2.2038,2.2038,0,2.2273,2.2258,2.2234,2.2225,2.2214,2.2186,2.2181,2.2167,2.2138,2.2131,2.2122,2.2088,2.2068,2.2054,2.2057,2.2049,2.2045,2.204,2.2053,2.2054,2.2055,2.2058,2.206,2.2039,2.2039,2.2039,2.2039,0,2.2283,2.2273,2.2272,2.2247,2.2236,2.2229,2.2203,2.2194,2.2178,2.2159,2.2145,2.2122,2.2099,2.2095,2.2078,2.2077,2.2073,2.2059,2.2043,2.206,2.2062,2.2064,2.2042,2.2041,2.2041,2.204,0,0,2.2323,2.2285,2.2285,2.2273,2.2245,2.2236,2.2227,2.2207,2.2199,2.2181,2.2171,2.2149,2.2136,2.2122,2.2103,2.2099,2.2109,2.2085,2.2084,2.2089,2.2105,2.2115,2.2117,2.2097,2.2098,2.2098,2.2107,0,2.2338,2.2323,2.2301,2.2292,2.2281,2.2255,2.2247,2.2228,2.2211,2.2197,2.2177,2.2162,2.2146,2.2138,2.2132,2.211,2.2112,2.2109,2.2086,2.2086,2.2092,2.2118,2.2128,2.2138,2.2108,2.2108,2.2108,0,2.2354,2.2338,2.2328,2.2301,2.2295,2.2289,2.2268,2.2257,2.2234,2.2221,2.2206,2.2186,2.2173,2.216,2.2141,2.2139,2.2128,2.2116,2.2116,2.2111,2.2097,2.2113,2.2141,2.2142,2.2109,2.2109,2.2109,0,2.2382,2.2358,2.2349,2.234,2.2308,2.2304,2.229,2.2267,2.2256,2.2237,2.2229,2.2209,2.2197,2.2181,2.2155,2.2148,2.2138,2.2123,2.2125,2.2126,2.2123,2.2124,2.2149,2.2119,2.2119,2.2119,2.2119,0,2.24,2.2395,2.2362,2.2356,2.2349,2.2323,2.2316,2.23,2.228,2.2269,2.2244,2.2234,2.2202,2.2187,2.2167,2.2153,2.2148,2.2136,2.213,2.2137,2.2139,2.2129,2.2127,2.2119,2.2119,2.2119,2.2119,0,2.243,2.2408,2.2396,2.2368,2.236,2.2356,2.233,2.2323,2.2304,2.2291,2.2286,2.2256,2.2237,2.2211,2.2183,2.217,2.2159,2.215,2.2167,2.2163,2.2167,2.2166,2.2185,2.2186,2.2157,2.2158,2.2158,0,2.2443,2.2439,2.241,2.2402,2.2389,2.2376,2.2365,2.2339,2.2329,2.2302,2.2297,2.2278,2.226,2.2232,2.2206,2.2185,2.2175,2.2183,2.2171,2.2178,2.2173,2.2173,2.2172,2.2185,2.2186,2.2186,2.2187,0,2.2467,2.2456,2.2442,2.2425,2.2413,2.2397,2.238,2.2374,2.2344,2.2333,2.2315,2.2302,2.2275,2.2255,2.223,2.2213,2.2194,2.2191,2.219,2.2196,2.2206,2.2199,2.2173,2.219,2.219,2.2189,2.2189,2.2189,2.2487,2.2482,2.2461,2.2446,2.2431,2.2416,2.2407,2.2388,2.2373,2.2351,2.2336,2.2318,2.2294,2.2259,2.2243,2.2228,2.222,2.2219,2.2218,2.2218,2.222,2.221,2.2223,2.2223,2.2223,2.2223,2.2223,0,2.2509,2.2494,2.2481,2.2459,2.2447,2.2433,2.2413,2.2403,2.2388,2.2369,2.2353,2.2331,2.2311,2.2284,2.2262,2.2255,2.2245,2.2249,2.2249,2.2245,2.2229,2.2232,2.2257,2.2257,2.2257,2.2257,2.2257,2.2257,2.2519,2.2509,2.2496,2.2477,2.2462,2.2446,2.2436,2.2421,2.2405,2.2383,2.2367,2.235,2.2327,2.2303,2.2283,2.2276,2.2268,2.2275,2.2264,2.225,2.2246,2.2243,2.2245,2.2274,2.2274,2.2281,2.2281,2.2281]}]]